Location: Unspecified
(0.0000°N, 0.0000°E)
Time: 09:41:56
(UTC+01:00)

SJ-6B - Visible Passes

Search period start: 19 January 2017 00:00
Search period end: 29 January 2017 00:00
Orbit: 513 x 583 km, 97.8° (Epoch: 18 January)

Date Brightness Start Highest point End Pass type
(mag) Time Alt. Az. Time Alt. Az. Time Alt. Az.
19 Jan 2.7 20:06:14 10° SSE 20:10:09 76° ENE 20:14:08 10° N visible
20 Jan 2.8 20:01:27 10° SSE 20:05:20 62° ENE 20:09:18 10° N visible
21 Jan 2.9 19:56:42 10° SSE 20:00:32 51° ENE 20:04:26 10° N visible
22 Jan 3.2 19:51:58 10° SSE 19:55:44 43° ENE 19:59:33 10° N visible
23 Jan 3.4 19:47:16 10° SE 19:50:56 36° ENE 19:54:37 10° NNE visible
24 Jan 3.6 19:42:36 10° SE 19:46:07 30° ENE 19:49:41 10° NNE visible
25 Jan 3.8 19:37:58 10° SE 19:41:19 26° ENE 19:44:42 10° NNE visible
25 Jan 6.3 21:15:00 10° WSW 21:15:44 10° WSW 21:16:28 10° W visible
26 Jan 4.1 19:33:23 10° SE 19:36:31 22° ENE 19:39:40 10° NNE visible
26 Jan 6.2 21:09:11 10° SW 21:10:56 13° WSW 21:12:41 10° WNW visible
27 Jan 6.0 21:03:48 10° SW 21:06:07 15° WSW 21:08:27 10° WNW visible
28 Jan 5.8 20:58:35 10° SW 21:01:18 18° WSW 21:04:03 10° WNW visible
